Rawlins, WY

11:17 PM MDT on September 21, 2017 (GMT -0600)
Rawlins Municipal

Weather History for KRWL - February, 2013

Change the Weather History Date:

Friday, February 22, 2013

  Actual Average Record
Temperature  
Mean Temperature 18 °F 25 °F  
Max Temperature 26 °F 36 °F 56 °F (1958)
Min Temperature 9 °F 15 °F -11 °F (1975)
Degree Days  
Heating Degree Days 47 40  
Month to date heating degree days 929 925  
Since 1 July heating degree days 5295 5724  
Cooling Degree Days 0 0  
Month to date cooling degree days 0 0  
Year to date cooling degree days 0 0  
Moisture  
Dew Point 10 °F    
Average Humidity 69    
Maximum Humidity 88    
Minimum Humidity 50    
Precipitation  
Precipitation T in 0.02 in 0.23 in (1959)
Month to date precipitation 0.14 0.32  
Year to date precipitation 0.31 0.68  
Sea Level Pressure  
Sea Level Pressure 29.95 in    
Wind  
Wind Speed 14 mph (WSW)    
Max Wind Speed 26 mph    
Max Gust Speed 36 mph    
Visibility 8 miles    
Events Snow    
T = Trace of Precipitation, MM = Missing Value Source: NWS Daily Summary

Daily Weather History Graph

Daily Weather History Graph

Search for Another Location

Airport or City:

Trip Planner

Search our weather history database for the weather conditions in past years. The results will help you decide how hot, cold, wet, or windy it might be!

Date:

Astronomy

Feb. 22, 2013 Rise Set
Actual Time 6:53 AM MST 5:51 PM MST
Civil Twilight 6:25 AM MST 6:19 PM MST
Nautical Twilight 5:53 AM MST 6:51 PM MST
Astronomical Twilight 5:21 AM MST 7:23 PM MST
Moon 3:03 PM MST 4:42 AM MST
Length of Visible Light 11h 53m
Length of Day
10h 57m
Waxing Gibbous, 90% of the Moon is Illuminated
Feb 22
Waxing Gibbous
Feb 25
Full
Mar 4
Last Quarter
Mar 11
New
Mar 19
First Quarter

Hourly Weather History & Observations

Time (MST) Temp. Windchill Dew Point Humidity Pressure Visibility Wind Dir Wind Speed Gust Speed Precip Events Conditions
12:53 AM 18.0 °F 3.1 °F 14.0 °F 84% 29.95 in 4.0 mi WSW 16.1 mph - 0.00 in Snow Light Snow
1:29 AM 17.6 °F 3.7 °F 12.2 °F 79% 29.82 in 10.0 mi WSW 13.8 mph - 0.00 in   Scattered Clouds
1:53 AM 15.1 °F 1.8 °F 10.9 °F 84% 29.96 in 10.0 mi WSW 11.5 mph - 0.00 in   Partly Cloudy
2:53 AM 14.0 °F 2.0 °F 10.0 °F 84% 29.97 in 10.0 mi WSW 9.2 mph 17.3 mph N/A   Clear
3:38 AM 14.0 °F 3.9 °F 10.4 °F 86% 29.82 in 10.0 mi West 6.9 mph - N/A   Overcast
3:53 AM 14.0 °F 5.1 °F 9.0 °F 80% 29.97 in 10.0 mi West 5.8 mph - N/A   Overcast
4:53 AM 12.9 °F 3.8 °F 8.1 °F 81% 29.99 in 6.0 mi WSW 5.8 mph - 0.00 in   Haze
5:08 AM 12.2 °F 1.7 °F 8.6 °F 85% 29.84 in 8.0 mi SW 6.9 mph - N/A   Overcast
5:15 AM 12.2 °F 2.9 °F 6.8 °F 79% 29.84 in 9.0 mi SW 5.8 mph - N/A   Overcast
5:30 AM 12.2 °F 1.7 °F 6.8 °F 79% 29.85 in 10.0 mi SW 6.9 mph - N/A   Overcast
5:53 AM 12.9 °F -0.2 °F 7.0 °F 77% 30.01 in 10.0 mi West 10.4 mph - N/A   Mostly Cloudy
6:53 AM 9.0 °F 2.4 °F 5.0 °F 84% 30.05 in 10.0 mi South 3.5 mph - N/A   Scattered Clouds
7:53 AM 12.9 °F -2.2 °F 8.1 °F 81% 30.05 in 10.0 mi WSW 13.8 mph - N/A   Clear
8:53 AM 17.1 °F 2.5 °F 10.0 °F 74% 30.04 in 7.0 mi WSW 15.0 mph - 0.00 in   Overcast
9:49 AM 17.6 °F 2.7 °F 10.4 °F 73% 29.90 in 2.0 mi WSW 16.1 mph - 0.00 in Snow Light Snow
9:53 AM 17.1 °F 2.5 °F 10.9 °F 77% 30.05 in 1.8 mi WSW 15.0 mph - 0.00 in Snow Light Snow
10:16 AM 17.6 °F 3.7 °F 12.2 °F 79% 29.90 in 2.0 mi WSW 13.8 mph - 0.00 in Snow Light Snow
10:25 AM 17.6 °F 1.7 °F 12.2 °F 79% 29.90 in 1.5 mi WSW 18.4 mph - 0.00 in Snow Light Snow
10:36 AM 17.6 °F 0.5 °F 10.4 °F 73% 29.90 in 2.0 mi West 21.9 mph 26.5 mph 0.00 in Snow Light Snow
10:44 AM 17.6 °F 2.7 °F 10.4 °F 73% 29.90 in 6.0 mi West 16.1 mph - 0.00 in Snow Light Snow
10:53 AM 19.0 °F 2.7 °F 10.9 °F 71% 30.04 in 7.0 mi West 20.7 mph 25.3 mph 0.00 in Snow Light Snow
11:08 AM 19.4 °F 2.8 °F 10.4 °F 68% 29.91 in 9.0 mi West 21.9 mph 28.8 mph 0.00 in   Overcast
11:53 AM 21.0 °F 7.6 °F 12.0 °F 68% 30.04 in 9.0 mi West 15.0 mph - 0.00 in   Overcast
12:02 PM 21.2 °F 9.5 °F 12.2 °F 68% 29.91 in 6.0 mi West 11.5 mph - 0.00 in Snow Light Snow
12:30 PM 23.0 °F 9.6 °F 10.4 °F 59% 29.89 in 10.0 mi West 16.1 mph - 0.00 in   Overcast
12:53 PM 21.9 °F 9.2 °F 12.9 °F 68% 30.03 in 3.0 mi West 13.8 mph - 0.00 in Snow Light Snow
1:01 PM 21.2 °F 7.8 °F 14.0 °F 74% 29.88 in 1.8 mi West 15.0 mph 23.0 mph 0.00 in Snow Light Snow
1:14 PM 23.0 °F 12.4 °F 12.2 °F 63% 29.88 in 4.0 mi West 10.4 mph - 0.00 in Snow Light Snow
1:24 PM 24.8 °F 12.4 °F 12.2 °F 59% 29.88 in 10.0 mi WSW 15.0 mph - 0.00 in   Scattered Clouds
1:45 PM 24.8 °F 12.4 °F 12.2 °F 59% 29.87 in 10.0 mi WSW 15.0 mph - 0.00 in   Mostly Cloudy
1:53 PM 25.0 °F 13.6 °F 12.0 °F 58% 30.00 in 10.0 mi WSW 12.7 mph - 0.00 in   Mostly Cloudy
2:53 PM 25.0 °F 13.6 °F 10.9 °F 55% 29.99 in 10.0 mi West 12.7 mph - 0.00 in   Mostly Cloudy
3:53 PM 25.0 °F 11.3 °F 9.0 °F 51% 29.98 in 10.0 mi WSW 18.4 mph 25.3 mph N/A   Mostly Cloudy
4:53 PM 24.1 °F 12.0 °F 8.1 °F 51% 29.98 in 10.0 mi West 13.8 mph 27.6 mph N/A   Mostly Cloudy
5:53 PM 21.9 °F 9.2 °F 12.0 °F 66% 30.00 in 10.0 mi SW 13.8 mph - N/A   Overcast
6:53 PM 19.0 °F 6.1 °F 10.0 °F 68% 30.03 in 10.0 mi WSW 12.7 mph - N/A   Clear
7:53 PM 19.0 °F 3.2 °F 8.1 °F 62% 30.01 in 10.0 mi WSW 19.6 mph 26.5 mph N/A   Overcast
8:53 PM 17.1 °F 4.3 °F 8.1 °F 68% 30.00 in 10.0 mi WSW 11.5 mph 23.0 mph N/A   Clear
9:53 PM 17.1 °F -0.3 °F 8.1 °F 68% 30.01 in 10.0 mi WSW 21.9 mph 28.8 mph N/A   Clear
10:53 PM 16.0 °F -1.3 °F 8.1 °F 71% 29.98 in 10.0 mi WSW 20.7 mph 28.8 mph N/A   Clear
11:53 PM 16.0 °F -1.3 °F 8.1 °F 71% 29.97 in 10.0 mi WSW 20.7 mph 29.9 mph N/A   Clear